Farmingdale, NY
on Saturday, December 9, 2017

Saturday
       
Previous Day Next Day
Daily Summary
 ActualAverageRecord
Temperature
Mean Temperature °F °C °F °C  
Max Temperature 36°F 2°C 44°F 6°C 54°F 12°C (1999)
Min Temperature 30°F -1°C 31°F 0°C 19°F -7°C (2010)
Degree Days
Heating Degree Days 32    
Moisture
Dew Point 28°F -2°C   
Average Humidity 84    
Maximum Humidity 96    
Minimum Humidity 46    
Precipitation
Precipitation 0.10 in / 2.54 cm in / cm in / cm ()
Wind
Wind Speed 7 mph / 11 km/h   
Max Wind Speed 14 mph / 23 km/h   
Max Gust Speed 17 mph / 27 km/h   
Visibility 3 miles / 5 kilometers   
Events Fog , Snow   
Averages and records for this station are not official NWS values.
Key: T is trace of precipitation, MM is missing value
Source: NWS Daily Summary
Seasonal Weather Averages
Time(EST)TemperatureDew PointHumidity Pressure Visibility Wind DirectionWind SpeedGust SpeedPrecipitationEvents Conditions
12:53 AM 36.0°F 2.2°C 17.1°F -8.3°C 46% 29.98 in / 1015.1 hPa 10.0 miles / 16.1 kilometers WNW 3.5 mph / 5.6 km/h - N/A   Overcast
1:53 AM 36.0°F 2.2°C 17.1°F -8.3°C 46% 29.97 in / 1014.8 hPa 10.0 miles / 16.1 kilometers Calm Calm - N/A   Overcast
2:53 AM 35.1°F 1.7°C 19.9°F -6.7°C 54% 29.97 in / 1014.8 hPa 10.0 miles / 16.1 kilometers Calm Calm - N/A   Overcast
3:53 AM 35.1°F 1.7°C 19.0°F -7.2°C 52% 29.97 in / 1014.7 hPa 10.0 miles / 16.1 kilometers Calm Calm - N/A   Overcast
4:53 AM 36.0°F 2.2°C 18.0°F -7.8°C 48% 29.96 in / 1014.5 hPa 10.0 miles / 16.1 kilometers North 4.6 mph / 7.4 km/h - N/A   Overcast
5:53 AM 35.1°F 1.7°C 19.9°F -6.7°C 54% 29.94 in / 1013.9 hPa 10.0 miles / 16.1 kilometers NE 3.5 mph / 5.6 km/h - N/A   Overcast
6:53 AM 36.0°F 2.2°C 18.0°F -7.8°C 48% 29.95 in / 1014.2 hPa 10.0 miles / 16.1 kilometers North 5.8 mph / 9.3 km/h - N/A   Overcast
7:53 AM 36.0°F 2.2°C 19.9°F -6.7°C 52% 29.94 in / 1013.9 hPa 10.0 miles / 16.1 kilometers North 8.1 mph / 13.0 km/h - N/A   Overcast
8:53 AM 36.0°F 2.2°C 21.9°F -5.6°C 57% 29.91 in / 1012.9 hPa 10.0 miles / 16.1 kilometers NNE 8.1 mph / 13.0 km/h - N/A   Overcast
9:53 AM 36.0°F 2.2°C 24.1°F -4.4°C 62% 29.93 in / 1013.3 hPa 4.0 miles / 6.4 kilometers North 10.4 mph / 16.7 km/h - N/A   Haze
10:02 AM 34.0°F 1.1°C 26.1°F -3.3°C 73% 29.92 in / 1013.1 hPa 1.8 miles / 2.8 kilometers NNE 11.5 mph / 18.5 km/h 17.3 mph / 27.8 km/h 0.00 in / 0.0 cm Snow Light Snow
10:17 AM 34.0°F 1.1°C 28.0°F -2.2°C 79% 29.91 in / 1012.8 hPa 2.5 miles / 4.0 kilometers NNE 6.9 mph / 11.1 km/h - 0.00 in / 0.0 cm Snow Light Snow
10:53 AM 33.1°F 0.6°C 28.0°F -2.2°C 82% 29.91 in / 1012.9 hPa 2.0 miles / 3.2 kilometers North 10.4 mph / 16.7 km/h - 0.00 in / 0.0 cm Snow Light Snow
11:03 AM 32.0°F 0.0°C 28.0°F -2.2°C 85% 29.91 in / 1012.8 hPa 1.2 miles / 2.0 kilometers North 11.5 mph / 18.5 km/h - 0.00 in / 0.0 cm Snow Light Snow
11:16 AM 32.0°F 0.0°C 28.9°F -1.7°C 88% 29.89 in / 1012.1 hPa 0.8 miles / 1.2 kilometers North 12.7 mph / 20.4 km/h - 0.00 in / 0.0 cm Snow Light Snow
11:39 AM 30.9°F -0.6°C 28.9°F -1.7°C 92% 29.88 in / 1011.7 hPa 0.8 miles / 1.2 kilometers North 9.2 mph / 14.8 km/h - 0.01 in / 0.3 cm Snow Light Snow
11:53 AM 30.9°F -0.6°C 28.9°F -1.7°C 92% 29.87 in / 1011.3 hPa 0.8 miles / 1.2 kilometers North 10.4 mph / 16.7 km/h - 0.01 in / 0.3 cm Snow Light Snow
12:49 PM 32.0°F 0.0°C 30.2°F -1.0°C 93% 29.82 in / 1009.7 hPa 0.8 miles / 1.2 kilometers NNE 8.1 mph / 13.0 km/h - 0.03 in / 0.8 cm Snow Light Snow
12:53 PM 32.0°F 0.0°C 30.0°F -1.1°C 92% 29.82 in / 1009.8 hPa 0.8 miles / 1.2 kilometers NNE 8.1 mph / 13.0 km/h - 0.03 in / 0.8 cm Snow Light Snow
1:09 PM 32.0°F 0.0°C 30.9°F -0.6°C 96% 29.81 in / 1009.4 hPa 0.8 miles / 1.2 kilometers NNE 8.1 mph / 13.0 km/h - 0.01 in / 0.3 cm Snow Light Snow
1:31 PM 32.0°F 0.0°C 30.9°F -0.6°C 96% 29.79 in / 1008.7 hPa 0.8 miles / 1.2 kilometers North 10.4 mph / 16.7 km/h - 0.02 in / 0.5 cm Snow Light Snow
1:53 PM 32.0°F 0.0°C 30.9°F -0.6°C 96% 29.77 in / 1008.1 hPa 0.8 miles / 1.2 kilometers NNE 9.2 mph / 14.8 km/h - 0.03 in / 0.8 cm Snow Light Snow
1:59 PM 32.0°F 0.0°C 30.9°F -0.6°C 96% 29.76 in / 1007.7 hPa 1.0 miles / 1.6 kilometers NNE 10.4 mph / 16.7 km/h - 0.00 in / 0.0 cm Snow Light Snow
2:13 PM 32.0°F 0.0°C 30.9°F -0.6°C 96% 29.76 in / 1007.7 hPa 1.2 miles / 2.0 kilometers NNE 8.1 mph / 13.0 km/h - 0.00 in / 0.0 cm Snow Light Snow
2:29 PM 33.1°F 0.6°C 30.9°F -0.6°C 92% 29.77 in / 1008.0 hPa 1.5 miles / 2.4 kilometers North 11.5 mph / 18.5 km/h - 0.00 in / 0.0 cm Snow Light Snow
2:49 PM 33.8°F 1.0°C 30.2°F -1.0°C 87% 29.75 in / 1007.3 hPa 2.0 miles / 3.2 kilometers NNE 12.7 mph / 20.4 km/h - 0.00 in / 0.0 cm Snow Light Snow
2:53 PM 33.1°F 0.6°C 30.9°F -0.6°C 92% 29.75 in / 1007.3 hPa 1.5 miles / 2.4 kilometers NNE 11.5 mph / 18.5 km/h - 0.00 in / 0.0 cm Snow Light Snow
3:09 PM 33.1°F 0.6°C 30.9°F -0.6°C 92% 29.75 in / 1007.3 hPa 1.0 miles / 1.6 kilometers NNE 13.8 mph / 22.2 km/h - 0.00 in / 0.0 cm Snow Light Snow
3:18 PM 32.0°F 0.0°C 30.9°F -0.6°C 96% 29.74 in / 1007.0 hPa 0.5 miles / 0.8 kilometers NNE 12.7 mph / 20.4 km/h - 0.01 in / 0.3 cm Fog , Snow Snow
3:32 PM 32.0°F 0.0°C 30.9°F -0.6°C 96% 29.74 in / 1007.0 hPa 1.2 miles / 2.0 kilometers North 12.7 mph / 20.4 km/h - 0.01 in / 0.3 cm Snow Light Snow
3:39 PM 33.1°F 0.6°C 30.9°F -0.6°C 92% 29.74 in / 1007.0 hPa 2.0 miles / 3.2 kilometers NNE 13.8 mph / 22.2 km/h - 0.01 in / 0.3 cm Snow Light Snow
3:49 PM 33.8°F 1.0°C 30.2°F -1.0°C 87% 29.73 in / 1006.7 hPa 1.8 miles / 2.8 kilometers NNE 12.7 mph / 20.4 km/h - 0.01 in / 0.3 cm Snow Light Snow
3:53 PM 33.1°F 0.6°C 30.9°F -0.6°C 92% 29.73 in / 1006.6 hPa 1.2 miles / 2.0 kilometers NNE 12.7 mph / 20.4 km/h - 0.01 in / 0.3 cm Snow Light Snow
4:08 PM 33.1°F 0.6°C 30.9°F -0.6°C 92% 29.72 in / 1006.3 hPa 1.8 miles / 2.8 kilometers NNE 12.7 mph / 20.4 km/h - 0.00 in / 0.0 cm Snow Light Snow
4:29 PM 33.1°F 0.6°C 30.9°F -0.6°C 92% 29.71 in / 1006.0 hPa 2.5 miles / 4.0 kilometers NNE 11.5 mph / 18.5 km/h - 0.00 in / 0.0 cm Snow Light Snow
4:38 PM 33.1°F 0.6°C 30.9°F -0.6°C 92% 29.71 in / 1006.0 hPa 1.0 miles / 1.6 kilometers NNE 12.7 mph / 20.4 km/h - 0.00 in / 0.0 cm Snow Light Snow
4:53 PM 33.1°F 0.6°C 30.9°F -0.6°C 92% 29.72 in / 1006.3 hPa 1.0 miles / 1.6 kilometers North 11.5 mph / 18.5 km/h - 0.01 in / 0.3 cm Snow Light Snow
5:53 PM 32.0°F 0.0°C 30.9°F -0.6°C 96% 29.70 in / 1005.7 hPa 1.0 miles / 1.6 kilometers North 10.4 mph / 16.7 km/h - 0.01 in / 0.3 cm Snow Light Snow
6:53 PM 32.0°F 0.0°C 30.9°F -0.6°C 96% 29.71 in / 1005.9 hPa 3.0 miles / 4.8 kilometers North 10.4 mph / 16.7 km/h - 0.00 in / 0.0 cm Snow Light Snow
6:55 PM 32.0°F 0.0°C 30.9°F -0.6°C 96% 29.70 in / 1005.6 hPa 1.8 miles / 2.8 kilometers North 9.2 mph / 14.8 km/h - 0.00 in / 0.0 cm Snow Light Snow
7:53 PM 32.0°F 0.0°C 30.9°F -0.6°C 96% 29.71 in / 1006.0 hPa 1.8 miles / 2.8 kilometers North 9.2 mph / 14.8 km/h - 0.00 in / 0.0 cm Snow Light Snow
8:09 PM 32.0°F 0.0°C 30.9°F -0.6°C 96% 29.71 in / 1006.0 hPa 1.8 miles / 2.8 kilometers North 9.2 mph / 14.8 km/h - 0.00 in / 0.0 cm Snow Light Snow
8:16 PM 32.0°F 0.0°C 30.9°F -0.6°C 96% 29.70 in / 1005.6 hPa 1.8 miles / 2.8 kilometers North 9.2 mph / 14.8 km/h - 0.00 in / 0.0 cm Snow Light Snow
8:53 PM 32.0°F 0.0°C 30.9°F -0.6°C 96% 29.71 in / 1006.0 hPa 1.8 miles / 2.8 kilometers North 6.9 mph / 11.1 km/h - 0.00 in / 0.0 cm Snow Light Snow
9:22 PM 32.0°F 0.0°C 30.9°F -0.6°C 96% 29.70 in / 1005.6 hPa 1.8 miles / 2.8 kilometers NNW 6.9 mph / 11.1 km/h - 0.00 in / 0.0 cm Snow Light Snow
9:53 PM 32.0°F 0.0°C 30.0°F -1.1°C 92% 29.70 in / 1005.7 hPa 1.8 miles / 2.8 kilometers NNW 8.1 mph / 13.0 km/h - 0.00 in / 0.0 cm Snow Light Snow
10:02 PM 32.0°F 0.0°C 30.0°F -1.1°C 92% 29.72 in / 1006.3 hPa 1.8 miles / 2.8 kilometers NNW 8.1 mph / 13.0 km/h - 0.00 in / 0.0 cm Snow Light Snow
10:33 PM 32.0°F 0.0°C 30.9°F -0.6°C 96% 29.70 in / 1005.6 hPa 1.8 miles / 2.8 kilometers NNW 5.8 mph / 9.3 km/h - 0.00 in / 0.0 cm Snow Light Snow
10:53 PM 32.0°F 0.0°C 30.0°F -1.1°C 92% 29.71 in / 1005.9 hPa 1.8 miles / 2.8 kilometers NNW 8.1 mph / 13.0 km/h - 0.00 in / 0.0 cm Snow Light Snow
11:10 PM 32.0°F 0.0°C 30.0°F -1.1°C 92% 29.71 in / 1006.0 hPa 1.8 miles / 2.8 kilometers NNW 6.9 mph / 11.1 km/h - 0.00 in / 0.0 cm Snow Light Snow
11:35 PM 32.0°F 0.0°C 30.0°F -1.1°C 92% 29.71 in / 1006.0 hPa 1.8 miles / 2.8 kilometers NNW 8.1 mph / 13.0 km/h - 0.00 in / 0.0 cm Snow Light Snow
11:50 PM 32.0°F 0.0°C 30.2°F -1.0°C 93% 29.71 in / 1006.0 hPa 1.8 miles / 2.8 kilometers NNW 8.1 mph / 13.0 km/h - 0.00 in / 0.0 cm   Overcast
11:53 PM 32.0°F 0.0°C 30.0°F -1.1°C 92% 29.71 in / 1006.1 hPa 1.8 miles / 2.8 kilometers NNW 8.1 mph / 13.0 km/h - 0.00 in / 0.0 cm   Overcast